763  
ASUS41 KAKQ 270415  
RWRAKQ  
 
REGIONAL WEATHER ROUNDUP  
NATIONAL WEATHER SERVICE WAKEFIELD VA  
1200 AM EDT MON MAR 27 2017  
 
NOTE: "FAIR" INDICATES FEW OR NO CLOUDS BELOW 12,000 FEET WITH NO  
SIGNIFICANT WEATHER AND/OR S TO VISIBILITY
. * = DENOTES  
STATION MAY NOT REPORT PRECIPITATION (E.G., RAIN,SNOW,ETC.),
 
THUNDER OR FOG.  
 
VAZ042-051-052>054-056-270500-  
NORTHERN VIRGINIA  
 
CITY SKY/WX TMP DP RH WIND PRES REMARKS
 
WASH NATIONAL DRIZZLE 47 46 97 E10 30.22F FOG  
DULLES DRZL/FOG 46 45 96 E7 30.20F VSB 1  
FORT BELVOIR CLOUDY 47 45 95 VRB6 30.20F FOG  
QUANTICO CLOUDY 48 48 100 E7 30.22F FOG  
FREDERICKSBRG* LGT RAIN 49 49 100 NE3 30.19F  
STAFFORD* CLOUDY 47 47 100 E3 30.24F FOG  
WARRENTON CLOUDY 49 46 90 E6 30.19F FOG  
CULPEPER* CLOUDY 49 49 99 CALM 30.20F FOG  
MANASSAS* CLOUDY 47 46 97 E5 30.21F FOG  
LEESBURG* CLOUDY 46 46 100 SE6 30.21F FOG  
WINCHESTER RAIN 45 43 93 SE10 30.17F  
FRONT ROYAL* CLOUDY 48 46 93 CALM 30.14F  
LURAY* LGT RAIN 52 52 100 CALM 30.13F  

 
 
VAZ048-049-060>072-079>083-270500-  
CENTRAL AND SOUTH CENTRAL VIRGINIA  
 
CITY SKY/WX TMP DP RH WIND PRES REMARKS
 
RICHMOND MOCLDY 54 51 90 NE5 30.18S  
CHESTERFIELD* FAIR N/A N/A N/A E3 30.18F  
PETERSBURG* MOCLDY 54 51 87 CALM 30.18S  
HANOVER CLOUDY 52 47 83 NE3 30.19F  
TAPPAHANNOCK* CLOUDY 52 52 100 NE5 30.20F  
QUINTON* CLOUDY 53 53 100 MISG 30.18S  
CHARLOTTSVILLE CLOUDY 50 49 96 NE7 30.17F FOG  
GORDONSVILLE* CLOUDY 49 49 100 NE6 30.17F FOG  
ORANGE* CLOUDY 46 46 100 CALM 30.20F FOG  
LOUISA* CLOUDY 54 52 94 NE3 30.16F FOG  
BUMPASS* CLOUDY 51 51 100 CALM 30.18F  
FARMVILLE* CLOUDY 54 54 100 NE6 30.14F FOG  
CREWE* CLOUDY 57 57 100 CALM 30.15F  
FORT PICKETT* CLOUDY 59 55 88 CALM 30.17S  
CHASE CITY* CLOUDY 59 58 94 SE3 30.15F  
CLARKSVILLE* CLOUDY 63 55 77 S5 30.14F  
SOUTH HILL* CLOUDY 63 53 70 S9 30.21F  
LAWRENCEVILLE* CLOUDY 63 54 72 SE6 30.16F  
EMPORIA* CLEAR 61 54 77 SE6 30.19S  

 
 
VAZ088>098-270500-  
SOUTHEAST VIRGINIA  
 
CITY SKY/WX TMP DP RH WIND PRES REMARKS
 
NORFOLK CLEAR 59 53 80 SE9 30.18F  
VIRGINIA BEACH MOCLDY 57 51 80 S6 30.19F  
NORFOLK NAVAL PTCLDY 60 52 74 S7 30.20F  
WEST POINT* PTCLDY 49 48 95 E6 30.20F  
SALUDA* CLOUDY 48 48 100 E3 30.20S  
NEWPORT NEWS CLEAR 51 49 92 E5 30.19F  
LANGLEY AFB CLEAR 52 50 92 CALM 30.18F  
FORT EUSTIS CLEAR 55 51 85 SE3 30.16F  
WILLIAMSBURG* PTCLDY 54 52 94 CALM 30.19S  
HR EXEC AP* FAIR 57 50 77 S7 30.17F  
FRANKLIN* PTCLDY 59 53 79 S5 30.19S  
US460-WAKEFLD CLOUDY 52 50 93 CALM 30.18F  

 
 
VAZ020-022-025-037-045-270500-  
WEST CENTRAL AND SOUTHWEST VIRGINIA  
 
CITY SKY/WX TMP DP RH WIND PRES REMARKS
 
STAUNTON* CLOUDY 52 49 90 SW5 30.16S  
WAYNESBORO* CLOUDY 48 48 100 SE7 30.15S  
HOT SPRINGS VA LGT RAIN 52 52 100 S15G26 30.14F VSB 1/4  
LYNCHBURG LGT RAIN 53 52 96 N6 30.16F FOG  
DANVILLE CLOUDY 59 59 100 E3 30.13F  
SOUTH BOSTON* CLOUDY 60 59 96 CALM 30.14F  
MARTINSVILLE CLOUDY 55 54 98 CALM 30.15F FOG  
ROANOKE CLOUDY 57 57 100 SE9 30.15F  
BLACKSBURG CLOUDY 55 53 94 CALM 30.16S  
DUBLIN* PTCLDY 58 55 89 S7 30.14S  
MARION* CLOUDY 58 53 85 N3 30.14S  
HILLSVILLE* CLOUDY 56 56 100 CALM 30.13F  
RICHLANDS* FAIR 58 51 77 S6 30.08F  
WISE* LGT RAIN 59 52 77 SW9 30.09S  
ABINGDON* PTCLDY 62 51 68 W3 30.08F  

 
 
MDZ021>025-VAZ099-100-270500-  
SOUTHERN MARYLAND AND THE DELMARVA PENINSULA  
 
CITY SKY/WX TMP DP RH WIND PRES REMARKS
 
PATUXENT RIVER FOG 47 47 100 E6 30.21F VSB 1/2  
BAY BRIDGE APT CLOUDY 45 45 100 E6 30.23F FOG  
LEONARDTOWN CLOUDY 45 45 100 CALM 30.23S VSB 1/4  
DOVER CLOUDY 44 44 100 NE6 30.23F FOG  
GEORGETOWN FOG 46 45 96 E5 30.23F VSB 1/2  
EASTON FOG 46 45 95 E6 30.26F VSB 1  
CAMBRIDGE FOG 46 45 93 VRB5 30.22F VSB 1/2  
SALISBURY FOG 47 47 100 E7 30.21F VSB 1/2  
OCEAN CITY FOG 46 45 96 NE3 30.23F VSB 1/4  
WALLOPS ISLAND FOG 47 47 100 NE7 30.22F VSB 1/4  
ACCOMACK* CLOUDY 48 47 97 E5 30.20F FOG  

 
 
NCZ012>017-030>032-270500-  
NORTH CENTRAL AND EASTERN NORTH CAROLINA  
 
CITY SKY/WX TMP DP RH WIND PRES REMARKS
 
ROANOKE RAPIDS FAIR 63 54 72 S5 30.18S  
RALEIGH CLOUDY 66 53 63 S8 30.15F  
ELIZABETH CITY CLEAR 58 54 86 S7 30.20F  
AHOSKIE* N/A 59 55 84 S3 30.19S  
EDENTON* CLEAR 61 55 81 CALM 30.20F  
CURRITUCK* CLEAR 58 54 88 CALM 30.21F  
KILL DEVIL HLS NOT AVBL  
MANTEO CLEAR 57 53 87 SE5 30.21F  
CAPE HATTERAS PTCLDY 66 54 65 S8 30.22S  
TARBORO* NOT AVBL  
GOLDSBORO CLOUDY 61 56 84 SE3 30.17F  
WASHINGTON CLEAR 61 55 82 S3 30.20F  
GREENVILLE PTCLDY 59 55 88 S6 30.20F  
NEW BERN CLEAR 55 54 96 CALM 30.21F  
WILMINGTON CLEAR 56 53 90 CALM 30.19S  

 
 
VAZ048-270500-  
ELSEWHERE  
 
CITY SKY/WX TMP DP RH WIND PRES REMARKS
 
HARRISBURG PA DRIZZLE 42 42 100 E7 30.22F FOG  
BALTIMORE DRIZZLE 44 44 100 E9 30.23F FOG  
ANNAPOLIS CLOUDY 46 45 96 E5 30.23F FOG  
ANDREWS AFB FOG 45 45 100 E6 30.21S VSB 3/4  
PHILADELPHIA CLOUDY 41 40 96 E8 30.28F FOG  
HENDERSON NC LGT RAIN 62 52 69 S9 30.15F  
GREENSBORO MOCLDY 61 56 83 S10 30.11F  
ROCKY MOUNT PTCLDY 61 54 77 S5 30.18F  

 
 
VAZ100-270500-  
MARINE  
 
STATION/POSITION TIME TEMP WIND PRES WAVE SWELL
 
AIR SEA DIR/SP/G HT/PER HT/PER  
(UTC) (F) (DEG/KT/KT) (MB) (FT/S) (FT/S)  
CAPE MAY NJ 0348 44 44 80/ 6/ 10 1023.4F  
LEWES DE 0348 44 45 90/ 9/ 12 1023.6F  
OCEAN-CITY-INLET 0348 45 44 10/ 4/ 4 1023.9F  
WACHAPREAGUE VA 0348 47 54 70/ 6/ 7 1022.5F  
THOMAS POINT MD 0400 44 45 80/ 6/ 7 N/A  
GOOSES REEF MD 0400 45 45 110/ 6/ 8 1024.0 1/ 2  
COVE POINT MD 0342 45 100/ 5/ 7 1023.8F  
SOLOMONS ISLAND 0342 46 47 80/ 5/ 6 N/A  
BISHOPS HEAD MD 0348 48 53 60/ 6/ 8 1023.3F  
PINEY POINT MD 0348 120/ 10/ 10 N/A  
POTOMAC MD 0400 47 47 100/ 4/ 4 1022.1 1/ 2  
CAMBRIDGE MD 0342 45 47 70/ 8/ 9 1022.6F  
LEWISETTA VA 0348 48 51 100/ 8/ 9 1022.7F  
RAPPAHANNOCK LGT 0348 120/ 15/ 17 1022.7F  
STINGRAY PT 0350 48 CALM / 2 1022.4F  
YORK RVR RNG VA 0348 52 150/ 13/ 14 1021.5F  
YORKTOWN VA 0348 52 50 140/ 2/ 3 1022.0F  
JAMESTOWN VA 0400 54 54 100/ 2/ 4 N/A 0  
DOMINION TERM VA 0348 55 130/ 7/ 7 1022.1F  
KIPTOPEKE VA 0348 50 110/ 6/ 8 N/A  
CHES BAY BRIDGE 0348 55 47 180/ 9/ 12 1022.2F  
CAPE HENRY VA 0348 59 160/ 11/ 16 N/A  
WILLOUBY STN VA 0348 59 160/ 14/ 15 1022.7F  
S CRANEY ISL VA 0348 60 150/ 10/ 13 1021.9F  
CAPE HENRY BUOY 0342 51 N/A 4/ 7  
CAPE CHARLES BUO 0351 49 N/A 3/ 7  
OFFSHORE WE BUOY 0351 48 N/A 4/ 7  
64NM E OF VA BCH 0350 56 51 140/ 6/ 6 1023.2F 4/ 8 3/ 8  
DUCK PIER NC 0348 53 47 150/ 14/ 14 1022.2F  
44100 DUCK FRF 0305 51 N/A 3/ 7 2/18  
44056 DUCK FRF 0330 50 N/A 3/ 7  
OREGON INLET NC 0348 110/ 5/ 6 N/A  
HATTERAS NC 0348 66 60 160/ 8/ 11 1022.9F  
DIAMOND SHLS NC 0350 69 76 150/ 16/ 17 1023.1F 4/ 8 3/ 8  
CAPE LOOKOUT NC 0300 67 140/ 11/ 11 1022.9S  

 
 
 
CLICK HERE TO GO TO PREVIOUS BULLETINS.

The Nexlab VA Page
The Nexlab NC Page
The Nexlab MD Page Main Text Page